QPF
0.03 0.03 0.05 0.07 0.07 0.07 0.06 0.05 0.06 0.07 0.09 0.09 0.09 0.10 0.10 0.08 0.06 0.04 0.03 0.03 0.03 0.03 0.03 0.03 0.02 0.02 0.03 0.03 0.04 0.03 0.03 0.03 0.03 0.02 0.02 0.03 0.03 0.04 0.04 0.05 0.04 0.03 0.02
0.04 0.04 0.05 0.06 0.07 0.07 0.06 0.06 0.06 0.06 0.09 0.12 0.10 0.08 0.08 0.07 0.04 0.03 0.02 0.02 0.02 0.02 0.02 0.02 0.02 0.02 0.02 0.03 0.04 0.04 0.04 0.04 0.03 0.02 0.02 0.02 0.03 0.04 0.06 0.07 0.08 0.06 0.04
0.05 0.06 0.05 0.05 0.05 0.05 0.03 0.03 0.04 0.05 0.07 0.07 0.06 0.07 0.07 0.05 0.05 0.04 0.03 0.02 0.02 0.02 0.02 0.02 0.02 0.02 0.02 0.03 0.03 0.03 0.03 0.03 0.03 0.03 0.03 0.03 0.04 0.05 0.06 0.07 0.08 0.07 0.05
0.03 0.03 0.04 0.03 0.02 0.02 0.02 0.02 0.02 0.03 0.04 0.05 0.05 0.05 0.05 0.04 0.03 0.02 0.01 0.01 0.01 0.01 0.02 0.02 0.02 0.02 0.02 0.02 0.02 0.02 0.02 0.03 0.03 0.03 0.03 0.03 0.05 0.06 0.07 0.07 0.08 0.07 0.05
0.02 0.03 0.03 0.03 0.02 0.01 0.01 0.01 0.01 0.03 0.03 0.04 0.05 0.05 0.04 0.03 0.03 0.02 0.01 0.01 0.01 0.02 0.02 0.02 0.02 0.02 0.02 0.02 0.02 0.02 0.02 0.02 0.02 0.02 0.02 0.03 0.05 0.06 0.06 0.05 0.07 0.07 0.05
0.02 0.03 0.02 0.01 0.01 0.01 0.01 0.01 0.01 0.03 0.05 0.06 0.06 0.06 0.05 0.04 0.03 0.02 0.02 0.01 0.02 0.02 0.03 0.03 0.03 0.03 0.03 0.02 0.02 0.01 0.01 0.02 0.02 0.02 0.02 0.02 0.03 0.04 0.05 0.04 0.05 0.06 0.06
0.01 0.01 0.01 0.01 0.01 0.01 0.00 0.01 0.02 0.03 0.06 0.07 0.07 0.07 0.06 0.05 0.04 0.03 0.02 0.02 0.02 0.02 0.02 0.03 0.03 0.03 0.03 0.03 0.02 0.02 0.02 0.01 0.02 0.02 0.01 0.01 0.01 0.02 0.02 0.03 0.03 0.04 0.05
0.01 0.01 0.01 0.01 0.01 0.00 0.00 0.01 0.03 0.03 0.04 0.05 0.05 0.05 0.05 0.04 0.04 0.04 0.02 0.02 0.02 0.02 0.02 0.02 0.02 0.02 0.02 0.03 0.03 0.02 0.01 0.01 0.01 0.01 0.01 0.01 0.01 0.01 0.01 0.02 0.03 0.03 0.03
0.03 0.02 0.02 0.01 0.01 0.01 0.01 0.01 0.02 0.04 0.03 0.03 0.05 0.05 0.03 0.03 0.04 0.04 0.03 0.02 0.02 0.02 0.02 0.01 0.01 0.01 0.01 0.02 0.03 0.02 0.02 0.02 0.02 0.02 0.01 0.01 0.01 0.01 0.01 0.02 0.03 0.03 0.03
0.03 0.03 0.02 0.01 0.01 0.01 0.01 0.02 0.03 0.03 0.03 0.04 0.05 0.04 0.03 0.03 0.03 0.03 0.02 0.02 0.01 0.01 0.01 0.01 0.02 0.01 0.02 0.02 0.02 0.03 0.03 0.02 0.02 0.02 0.02 0.02 0.01 0.01 0.02 0.02 0.03 0.03 0.03
0.02 0.03 0.04 0.03 0.02 0.03 0.03 0.04 0.05 0.04 0.04 0.03 0.02 0.03 0.02 0.02 0.02 0.02 0.02 0.02 0.02 0.01 0.01 0.01 0.01 0.01 0.01 0.01 0.01 0.02 0.02 0.02 0.02 0.02 0.02 0.02 0.01 0.01 0.01 0.01 0.02 0.02 0.02
0.01 0.03 0.04 0.05 0.04 0.03 0.03 0.03 0.03 0.02 0.02 0.01 0.01 0.02 0.01 0.01 0.01 0.01 0.01 0.01 0.00 0.00 0.00 0.00 0.00 0.01 0.01 0.01 0.00 0.01 0.02 0.02 0.02 0.01 0.01 0.01 0.01 0.01 0.01 0.01 0.01 0.02 0.02
0.01 0.04 0.05 0.05 0.04 0.03 0.02 0.01 0.01 0.01 0.01 0.01 0.01 0.02 0.02 0.01 0.01 0.01 0.00 0.00 0.00 0.00 0.00 0.00 0.00 0.01 0.01 0.01 0.01 0.02 0.02 0.01 0.02 0.02 0.01 0.01 0.01 0.01 0.01 0.01 0.01 0.02 0.01
0.02 0.04 0.05 0.04 0.03 0.03 0.01 0.01 0.00 0.01 0.01 0.01 0.01 0.02 0.02 0.01 0.00 0.00 0.00 0.00 0.00 0.00 0.00 0.00 0.00 0.01 0.01 0.01 0.01 0.01 0.01 0.02 0.02 0.02 0.02 0.02 0.02 0.01 0.01 0.01 0.01 0.01 0.01
0.02 0.03 0.03 0.02 0.01 0.01 0.00 0.00 0.00 0.00 0.01 0.02 0.02 0.02 0.01 0.00 0.00 0.00 0.00 0.00 0.00 0.00 0.00 0.00 0.00 0.00 0.01 0.01 0.01 0.01 0.01 0.01 0.01 0.02 0.02 0.02 0.02 0.02 0.01 0.01 0.00 0.00 0.00
0.02 0.01 0.01 0.01 0.01 0.00 0.00 0.01 0.00 0.00 0.01 0.01 0.01 0.02 0.01 0.01 0.01 0.01 0.00 0.00 0.00 0.00 0.00 0.01 0.01 0.01 0.01 0.01 0.01 0.01 0.02 0.02 0.01 0.01 0.01 0.01 0.02 0.02 0.02 0.01 0.01 0.00 0.00
0.01 0.01 0.02 0.02 0.01 0.01 0.00 0.00 0.00 0.00 0.01 0.01 0.01 0.02 0.02 0.02 0.01 0.00 0.00 0.00 0.01 0.01 0.01 0.01 0.01 0.02 0.03 0.03 0.02 0.02 0.02 0.02 0.01 0.01 0.01 0.01 0.01 0.02 0.02 0.02 0.02 0.01 0.01
0.02 0.03 0.02 0.02 0.01 0.01 0.01 0.01 0.02 0.01 0.01 0.02 0.03 0.02 0.02 0.02 0.01 0.01 0.00 0.01 0.01 0.02 0.02 0.02 0.01 0.02 0.03 0.04 0.03 0.02 0.02 0.01 0.01 0.01 0.02 0.02 0.01 0.01 0.01 0.01 0.01 0.02 0.02
0.02 0.02 0.02 0.01 0.01 0.01 0.01 0.01 0.03 0.03 0.03 0.03 0.03 0.02 0.02 0.02 0.02 0.02 0.01 0.01 0.02 0.03 0.03 0.02 0.01 0.01 0.02 0.03 0.02 0.02 0.01 0.01 0.01 0.01 0.01 0.01 0.01 0.01 0.01 0.01 0.01 0.01 0.02
0.02 0.02 0.02 0.01 0.01 0.01 0.01 0.02 0.05 0.04 0.03 0.03 0.04 0.03 0.03 0.02 0.02 0.02 0.03 0.03 0.03 0.04 0.04 0.03 0.01 0.01 0.02 0.01 0.01 0.02 0.01 0.01 0.01 0.01 0.01 0.01 0.01 0.02 0.02 0.02 0.02 0.03 0.03
0.02 0.03 0.02 0.01 0.01 0.01 0.02 0.04 0.06 0.05 0.03 0.03 0.03 0.04 0.03 0.01 0.02 0.03 0.03 0.03 0.04 0.04 0.03 0.03 0.02 0.02 0.02 0.02 0.02 0.01 0.01 0.01 0.01 0.01 0.01 0.01 0.02 0.02 0.03 0.03 0.03 0.03 0.04
0.03 0.04 0.02 0.01 0.01 0.01 0.02 0.04 0.05 0.04 0.03 0.02 0.02 0.02 0.02 0.01 0.02 0.02 0.02 0.02 0.02 0.02 0.02 0.02 0.02 0.02 0.02 0.02 0.02 0.02 0.02 0.01 0.01 0.01 0.02 0.02 0.02 0.03 0.03 0.03 0.03 0.03 0.04
0.02 0.03 0.01 0.01 0.01 0.01 0.03 0.04 0.04 0.04 0.03 0.02 0.02 0.02 0.02 0.02 0.01 0.01 0.01 0.01 0.01 0.01 0.01 0.01 0.01 0.01 0.01 0.01 0.01 0.01 0.01 0.01 0.01 0.02 0.02 0.02 0.02 0.03 0.03 0.03 0.03 0.04 0.04
0.02 0.02 0.01 0.01 0.01 0.01 0.02 0.02 0.02 0.02 0.02 0.02 0.02 0.02 0.01 0.01 0.01 0.01 0.01 0.01 0.01 0.00 0.00 0.00 0.00 0.00 0.00 0.00 0.01 0.01 0.01 0.01 0.01 0.01 0.02 0.02 0.02 0.02 0.03 0.03 0.03 0.04 0.03
0.02 0.02 0.01 0.01 0.01 0.01 0.01 0.01 0.01 0.01 0.01 0.01 0.01 0.01 0.01 0.01 0.00 0.01 0.01 0.01 0.01 0.00 0.00 0.00 0.00 0.00 0.00 0.00 0.00 0.00 0.00 0.00 0.01 0.01 0.01 0.02 0.02 0.02 0.03 0.03 0.03 0.03 0.03
0.01 0.02 0.01 0.01 0.02 0.02 0.01 0.01 0.01 0.01 0.00 0.01 0.01 0.01 0.01 0.01 0.01 0.01 0.01 0.01 0.01 0.01 0.00 0.00 0.00 0.00 0.00 0.00 0.00 0.00 0.00 0.00 0.01 0.01 0.01 0.01 0.02 0.03 0.03 0.03 0.03 0.03 0.03
MSLP
1008.36 1008.67 1008.95 1009.20 1009.40 1009.59 1009.78 1010.00 1010.25 1010.53 1010.83 1011.11 1011.34 1011.50 1011.55 1011.51 1011.40 1011.23 1011.06 1010.92 1010.84 1010.82 1010.84 1010.88 1010.90 1010.87 1010.74 1010.51 1010.18 1009.76 1009.30 1008.82 1008.35 1007.91 1007.49 1007.10 1006.70 1006.31 1005.90 1005.49 1005.09 1004.75 1004.50
1009.39 1009.61 1009.80 1009.97 1010.13 1010.29 1010.48 1010.70 1010.97 1011.27 1011.59 1011.89 1012.12 1012.28 1012.32 1012.26 1012.10 1011.89 1011.66 1011.45 1011.28 1011.16 1011.10 1011.06 1011.01 1010.91 1010.76 1010.51 1010.19 1009.81 1009.38 1008.94 1008.49 1008.06 1007.63 1007.20 1006.75 1006.29 1005.80 1005.30 1004.83 1004.40 1004.07
1010.31 1010.45 1010.57 1010.68 1010.80 1010.94 1011.13 1011.36 1011.66 1011.99 1012.34 1012.67 1012.92 1013.09 1013.13 1013.06 1012.88 1012.62 1012.33 1012.04 1011.79 1011.59 1011.43 1011.31 1011.18 1011.04 1010.86 1010.61 1010.31 1009.95 1009.56 1009.14 1008.71 1008.28 1007.83 1007.36 1006.86 1006.33 1005.78 1005.21 1004.66 1004.16 1003.76
1011.04 1011.12 1011.20 1011.28 1011.37 1011.50 1011.69 1011.95 1012.27 1012.64 1013.02 1013.38 1013.68 1013.86 1013.92 1013.84 1013.64 1013.35 1013.01 1012.66 1012.33 1012.04 1011.80 1011.60 1011.42 1011.23 1011.02 1010.78 1010.48 1010.14 1009.77 1009.36 1008.94 1008.48 1008.01 1007.50 1006.96 1006.37 1005.76 1005.14 1004.54 1003.99 1003.53
1011.58 1011.63 1011.68 1011.73 1011.82 1011.96 1012.16 1012.44 1012.79 1013.19 1013.61 1014.00 1014.32 1014.52 1014.59 1014.51 1014.30 1013.99 1013.62 1013.21 1012.82 1012.46 1012.15 1011.89 1011.66 1011.43 1011.20 1010.94 1010.65 1010.32 1009.94 1009.54 1009.09 1008.62 1008.11 1007.56 1006.98 1006.36 1005.72 1005.07 1004.44 1003.87 1003.38
1011.95 1011.99 1012.04 1012.10 1012.20 1012.34 1012.56 1012.85 1013.22 1013.64 1014.07 1014.48 1014.81 1015.03 1015.10 1015.03 1014.82 1014.49 1014.09 1013.64 1013.21 1012.80 1012.44 1012.13 1011.86 1011.60 1011.35 1011.07 1010.77 1010.42 1010.04 1009.61 1009.14 1008.64 1008.10 1007.53 1006.92 1006.28 1005.64 1004.99 1004.37 1003.80 1003.31
1012.22 1012.29 1012.36 1012.44 1012.55 1012.71 1012.93 1013.23 1013.60 1014.01 1014.44 1014.84 1015.16 1015.38 1015.45 1015.38 1015.16 1014.82 1014.40 1013.94 1013.47 1013.03 1012.64 1012.29 1011.98 1011.70 1011.42 1011.13 1010.81 1010.44 1010.04 1009.59 1009.10 1008.57 1008.00 1007.42 1006.80 1006.18 1005.55 1004.93 1004.34 1003.80 1003.32
1012.50 1012.60 1012.70 1012.82 1012.95 1013.12 1013.35 1013.64 1013.98 1014.36 1014.76 1015.13 1015.43 1015.62 1015.67 1015.57 1015.34 1015.00 1014.57 1014.10 1013.62 1013.16 1012.75 1012.38 1012.04 1011.74 1011.44 1011.12 1010.78 1010.40 1009.97 1009.50 1008.99 1008.45 1007.88 1007.29 1006.70 1006.10 1005.51 1004.94 1004.40 1003.90 1003.44
1012.83 1012.98 1013.13 1013.28 1013.44 1013.62 1013.84 1014.11 1014.42 1014.76 1015.10 1015.41 1015.65 1015.79 1015.81 1015.69 1015.44 1015.09 1014.66 1014.18 1013.70 1013.24 1012.80 1012.42 1012.07 1011.74 1011.42 1011.09 1010.73 1010.33 1009.89 1009.41 1008.90 1008.36 1007.80 1007.23 1006.67 1006.11 1005.57 1005.05 1004.56 1004.10 1003.68
1013.23 1013.44 1013.64 1013.83 1014.02 1014.21 1014.42 1014.66 1014.93 1015.21 1015.49 1015.73 1015.91 1015.99 1015.96 1015.80 1015.54 1015.17 1014.74 1014.26 1013.78 1013.31 1012.87 1012.47 1012.11 1011.76 1011.42 1011.08 1010.70 1010.30 1009.86 1009.38 1008.88 1008.36 1007.82 1007.29 1006.76 1006.24 1005.74 1005.27 1004.82 1004.39 1003.99
1013.67 1013.93 1014.18 1014.42 1014.64 1014.85 1015.06 1015.28 1015.50 1015.73 1015.94 1016.11 1016.22 1016.23 1016.15 1015.96 1015.68 1015.30 1014.87 1014.39 1013.91 1013.44 1013.00 1012.60 1012.22 1011.85 1011.50 1011.14 1010.76 1010.35 1009.92 1009.46 1008.98 1008.48 1007.97 1007.47 1006.97 1006.48 1006.01 1005.56 1005.13 1004.72 1004.32
1014.08 1014.39 1014.69 1014.98 1015.23 1015.47 1015.68 1015.89 1016.09 1016.27 1016.42 1016.52 1016.57 1016.53 1016.41 1016.19 1015.89 1015.51 1015.08 1014.62 1014.14 1013.68 1013.24 1012.82 1012.42 1012.05 1011.68 1011.30 1010.92 1010.52 1010.09 1009.64 1009.18 1008.70 1008.22 1007.74 1007.25 1006.77 1006.30 1005.84 1005.40 1004.98 1004.57
1014.41 1014.76 1015.10 1015.42 1015.72 1015.98 1016.22 1016.42 1016.61 1016.76 1016.87 1016.92 1016.92 1016.85 1016.69 1016.46 1016.15 1015.78 1015.37 1014.92 1014.47 1014.02 1013.58 1013.16 1012.75 1012.36 1011.97 1011.58 1011.19 1010.78 1010.36 1009.92 1009.47 1009.00 1008.52 1008.03 1007.53 1007.03 1006.53 1006.03 1005.55 1005.08 1004.64
1014.59 1014.96 1015.33 1015.69 1016.03 1016.32 1016.59 1016.81 1016.99 1017.13 1017.22 1017.25 1017.22 1017.12 1016.96 1016.72 1016.43 1016.08 1015.70 1015.29 1014.86 1014.43 1014.01 1013.59 1013.18 1012.77 1012.36 1011.96 1011.54 1011.12 1010.69 1010.24 1009.78 1009.30 1008.80 1008.27 1007.73 1007.17 1006.60 1006.04 1005.49 1004.96 1004.47
1014.62 1014.99 1015.38 1015.77 1016.14 1016.47 1016.76 1017.01 1017.20 1017.34 1017.42 1017.45 1017.40 1017.30 1017.15 1016.93 1016.67 1016.37 1016.03 1015.66 1015.28 1014.89 1014.49 1014.08 1013.66 1013.25 1012.82 1012.39 1011.96 1011.50 1011.04 1010.57 1010.07 1009.55 1008.99 1008.41 1007.79 1007.15 1006.49 1005.83 1005.19 1004.59 1004.03
1014.50 1014.87 1015.26 1015.67 1016.06 1016.43 1016.75 1017.02 1017.23 1017.38 1017.47 1017.50 1017.46 1017.37 1017.23 1017.05 1016.84 1016.59 1016.31 1016.01 1015.69 1015.34 1014.98 1014.60 1014.19 1013.76 1013.32 1012.86 1012.39 1011.90 1011.39 1010.86 1010.31 1009.72 1009.10 1008.43 1007.72 1006.98 1006.21 1005.44 1004.70 1004.00 1003.38
1014.30 1014.66 1015.05 1015.46 1015.88 1016.27 1016.61 1016.91 1017.14 1017.30 1017.40 1017.43 1017.41 1017.34 1017.23 1017.10 1016.94 1016.75 1016.54 1016.32 1016.06 1015.78 1015.46 1015.10 1014.71 1014.28 1013.83 1013.34 1012.82 1012.28 1011.72 1011.13 1010.50 1009.84 1009.13 1008.37 1007.56 1006.72 1005.84 1004.96 1004.12 1003.32 1002.63
1014.08 1014.42 1014.81 1015.23 1015.66 1016.06 1016.43 1016.74 1016.99 1017.16 1017.27 1017.32 1017.31 1017.27 1017.20 1017.10 1017.00 1016.88 1016.74 1016.59 1016.41 1016.19 1015.92 1015.60 1015.23 1014.80 1014.33 1013.81 1013.25 1012.66 1012.04 1011.38 1010.68 1009.94 1009.15 1008.31 1007.41 1006.47 1005.50 1004.53 1003.59 1002.71 1001.93
1013.90 1014.22 1014.60 1015.03 1015.46 1015.88 1016.27 1016.60 1016.86 1017.05 1017.17 1017.23 1017.24 1017.22 1017.18 1017.13 1017.08 1017.02 1016.95 1016.86 1016.74 1016.58 1016.36 1016.08 1015.73 1015.30 1014.82 1014.27 1013.68 1013.04 1012.36 1011.64 1010.89 1010.08 1009.22 1008.32 1007.35 1006.34 1005.31 1004.27 1003.26 1002.31 1001.46
1013.76 1014.08 1014.47 1014.90 1015.34 1015.78 1016.18 1016.52 1016.80 1017.00 1017.14 1017.22 1017.25 1017.25 1017.24 1017.23 1017.22 1017.21 1017.19 1017.16 1017.09 1016.98 1016.80 1016.54 1016.20 1015.79 1015.29 1014.72 1014.10 1013.43 1012.71 1011.95 1011.15 1010.30 1009.41 1008.46 1007.46 1006.42 1005.36 1004.28 1003.23 1002.24 1001.34
1013.67 1013.99 1014.38 1014.82 1015.28 1015.73 1016.15 1016.51 1016.81 1017.04 1017.20 1017.30 1017.35 1017.38 1017.40 1017.42 1017.44 1017.46 1017.48 1017.49 1017.46 1017.37 1017.22 1016.98 1016.65 1016.24 1015.74 1015.16 1014.52 1013.82 1013.08 1012.30 1011.49 1010.63 1009.73 1008.78 1007.79 1006.76 1005.70 1004.63 1003.58 1002.57 1001.64
1013.60 1013.93 1014.33 1014.78 1015.24 1015.71 1016.15 1016.54 1016.86 1017.12 1017.31 1017.44 1017.53 1017.59 1017.63 1017.68 1017.72 1017.77 1017.82 1017.84 1017.82 1017.75 1017.60 1017.38 1017.06 1016.65 1016.15 1015.57 1014.92 1014.22 1013.49 1012.71 1011.90 1011.06 1010.19 1009.28 1008.33 1007.34 1006.33 1005.30 1004.29 1003.30 1002.38
1013.52 1013.86 1014.26 1014.71 1015.19 1015.67 1016.12 1016.54 1016.90 1017.19 1017.42 1017.60 1017.72 1017.81 1017.89 1017.96 1018.02 1018.08 1018.14 1018.16 1018.15 1018.08 1017.94 1017.72 1017.40 1017.00 1016.50 1015.94 1015.30 1014.62 1013.90 1013.15 1012.38 1011.58 1010.76 1009.92 1009.04 1008.13 1007.20 1006.25 1005.30 1004.37 1003.49
1013.42 1013.75 1014.14 1014.59 1015.06 1015.55 1016.02 1016.46 1016.85 1017.19 1017.46 1017.68 1017.84 1017.98 1018.09 1018.18 1018.27 1018.34 1018.40 1018.43 1018.41 1018.34 1018.20 1017.98 1017.68 1017.28 1016.81 1016.26 1015.66 1015.01 1014.33 1013.62 1012.90 1012.17 1011.42 1010.65 1009.86 1009.05 1008.22 1007.37 1006.52 1005.68 1004.86
1013.29 1013.61 1013.98 1014.41 1014.88 1015.36 1015.83 1016.29 1016.70 1017.07 1017.38 1017.64 1017.86 1018.04 1018.18 1018.31 1018.41 1018.50 1018.56 1018.60 1018.58 1018.52 1018.38 1018.18 1017.89 1017.52 1017.08 1016.56 1016.00 1015.40 1014.77 1014.12 1013.46 1012.79 1012.12 1011.44 1010.74 1010.03 1009.31 1008.57 1007.83 1007.10 1006.39
1013.16 1013.45 1013.80 1014.20 1014.64 1015.10 1015.57 1016.02 1016.45 1016.84 1017.18 1017.48 1017.74 1017.96 1018.14 1018.30 1018.44 1018.54 1018.62 1018.67 1018.67 1018.62 1018.50 1018.32 1018.06 1017.73 1017.33 1016.87 1016.36 1015.81 1015.24 1014.65 1014.06 1013.46 1012.86 1012.25 1011.64 1011.03 1010.42 1009.79 1009.16 1008.54 1007.94
Thickness
5675 5673 5670 5667 5665 5663 5660 5658 5656 5654 5653 5651 5650 5648 5646 5644 5641 5638 5634 5631 5627 5623 5620 5616 5613 5610 5606 5603 5600 5596 5592 5589 5586 5588 5589 5590 5589 5589 5590 5591 5592 5593 5595
5671 5669 5666 5663 5660 5657 5655 5654 5653 5650 5649 5647 5645 5643 5641 5639 5636 5632 5628 5625 5621 5617 5614 5610 5606 5603 5599 5595 5591 5587 5584 5581 5577 5576 5578 5578 5579 5579 5580 5581 5582 5584 5585
5667 5664 5661 5658 5657 5654 5652 5650 5649 5646 5644 5643 5641 5638 5636 5633 5630 5627 5623 5619 5616 5612 5608 5603 5599 5595 5591 5587 5583 5578 5575 5573 5569 5566 5566 5567 5567 5569 5569 5570 5571 5572 5575
5664 5661 5658 5656 5654 5652 5650 5647 5645 5642 5640 5638 5636 5634 5631 5628 5625 5622 5618 5614 5610 5606 5602 5597 5593 5589 5584 5580 5576 5571 5568 5564 5560 5557 5555 5555 5555 5557 5557 5557 5558 5560 5563
5661 5658 5656 5654 5652 5650 5648 5645 5642 5639 5637 5634 5632 5629 5626 5623 5620 5616 5613 5609 5604 5599 5595 5590 5587 5583 5580 5575 5570 5565 5560 5555 5552 5548 5546 5544 5544 5544 5544 5545 5546 5548 5552
5658 5656 5655 5653 5650 5647 5645 5642 5639 5636 5633 5631 5628 5625 5622 5619 5616 5612 5608 5602 5597 5592 5587 5583 5580 5576 5572 5568 5564 5561 5556 5550 5545 5541 5537 5535 5535 5535 5535 5536 5535 5537 5539
5656 5655 5653 5651 5648 5645 5643 5639 5636 5633 5630 5627 5623 5620 5617 5613 5610 5606 5602 5597 5591 5585 5581 5576 5575 5570 5565 5561 5557 5555 5551 5547 5543 5537 5532 5530 5529 5529 5527 5527 5527 5528 5530
5654 5652 5651 5648 5645 5642 5639 5636 5633 5630 5627 5623 5620 5616 5612 5609 5605 5601 5596 5590 5584 5579 5574 5570 5566 5562 5559 5554 5550 5547 5543 5541 5538 5534 5530 5528 5527 5525 5523 5522 5521 5522 5525
5651 5650 5649 5647 5643 5640 5637 5634 5631 5628 5624 5620 5617 5613 5608 5605 5601 5596 5591 5584 5578 5573 5569 5565 5561 5556 5554 5550 5545 5540 5537 5534 5533 5530 5528 5525 5523 5521 5519 5516 5515 5514 5516
5650 5649 5648 5646 5643 5640 5636 5633 5630 5626 5622 5618 5614 5609 5605 5600 5596 5592 5586 5579 5573 5568 5564 5561 5557 5553 5549 5545 5539 5534 5531 5529 5527 5525 5523 5521 5518 5516 5515 5512 5511 5509 5509
5650 5649 5647 5645 5642 5639 5635 5632 5628 5625 5620 5615 5611 5607 5602 5598 5593 5589 5583 5575 5569 5563 5559 5555 5552 5549 5546 5542 5537 5532 5529 5526 5522 5519 5517 5515 5513 5511 5510 5509 5508 5507 5505
5649 5647 5645 5643 5641 5638 5634 5630 5627 5623 5618 5613 5608 5603 5599 5595 5591 5586 5580 5574 5568 5560 5555 5551 5548 5545 5542 5538 5534 5531 5527 5523 5518 5514 5512 5510 5508 5507 5506 5506 5505 5504 5504
5647 5645 5642 5640 5638 5635 5632 5627 5624 5620 5616 5611 5605 5601 5597 5593 5588 5584 5578 5572 5566 5558 5553 5549 5546 5542 5539 5535 5532 5528 5524 5519 5514 5510 5508 5506 5505 5503 5502 5502 5501 5501 5501
5645 5642 5639 5637 5634 5632 5629 5626 5622 5618 5614 5610 5604 5599 5594 5590 5585 5580 5575 5569 5564 5557 5551 5547 5543 5539 5535 5532 5528 5524 5520 5516 5512 5508 5505 5504 5502 5500 5499 5498 5497 5496 5495
5642 5640 5637 5635 5632 5628 5626 5624 5621 5619 5615 5610 5604 5598 5593 5589 5585 5580 5573 5567 5561 5555 5549 5543 5538 5534 5530 5527 5524 5520 5517 5513 5509 5507 5503 5501 5499 5498 5497 5495 5494 5493 5492
5640 5637 5635 5632 5629 5626 5624 5621 5621 5618 5615 5611 5606 5601 5596 5591 5586 5580 5574 5568 5562 5556 5547 5540 5535 5530 5527 5523 5520 5517 5513 5510 5507 5505 5502 5499 5498 5496 5494 5493 5492 5490 5489
5639 5636 5634 5631 5628 5625 5623 5620 5617 5615 5613 5609 5605 5601 5596 5591 5585 5580 5574 5567 5561 5554 5545 5539 5533 5529 5525 5521 5517 5513 5510 5507 5504 5502 5499 5497 5496 5494 5492 5491 5489 5488 5487
5639 5637 5634 5631 5628 5625 5622 5619 5616 5612 5609 5607 5605 5601 5596 5591 5585 5579 5572 5566 5559 5552 5545 5539 5533 5528 5524 5519 5515 5511 5508 5505 5502 5499 5497 5495 5493 5491 5490 5489 5488 5486 5485
5637 5634 5632 5630 5627 5624 5621 5618 5615 5612 5609 5606 5603 5600 5597 5591 5585 5579 5572 5564 5557 5552 5545 5539 5534 5528 5523 5518 5514 5510 5506 5502 5499 5497 5494 5493 5491 5489 5488 5487 5486 5485 5483
5635 5633 5631 5627 5624 5622 5619 5616 5614 5611 5608 5605 5602 5599 5594 5589 5582 5577 5571 5564 5557 5551 5545 5540 5534 5528 5523 5517 5513 5508 5504 5501 5498 5495 5493 5491 5490 5489 5487 5486 5485 5484 5482
5633 5631 5629 5625 5622 5620 5617 5615 5613 5610 5608 5605 5602 5600 5595 5588 5582 5576 5570 5564 5557 5551 5545 5539 5534 5528 5522 5517 5512 5507 5504 5500 5497 5494 5492 5490 5489 5488 5487 5485 5484 5483 5482
5632 5629 5626 5623 5621 5619 5617 5615 5612 5610 5608 5605 5601 5598 5594 5588 5582 5576 5569 5563 5558 5551 5546 5540 5533 5528 5522 5517 5512 5508 5503 5499 5496 5493 5491 5490 5489 5488 5486 5485 5484 5482 5482
5631 5628 5625 5623 5620 5618 5616 5613 5611 5608 5606 5603 5600 5596 5591 5586 5581 5575 5569 5563 5557 5551 5546 5540 5534 5528 5523 5518 5514 5509 5504 5499 5495 5492 5490 5488 5487 5487 5485 5484 5482 5481 5481
5630 5628 5625 5622 5619 5617 5614 5612 5609 5607 5605 5602 5598 5594 5590 5585 5580 5575 5569 5563 5557 5551 5546 5539 5534 5528 5524 5519 5515 5510 5506 5501 5497 5494 5491 5488 5487 5486 5485 5483 5482 5481 5479
5630 5627 5624 5621 5619 5616 5613 5611 5608 5606 5604 5601 5597 5593 5589 5584 5579 5574 5569 5563 5557 5551 5545 5539 5534 5529 5525 5520 5516 5512 5508 5504 5500 5496 5493 5490 5488 5487 5485 5484 5482 5480 5479
5629 5627 5624 5621 5619 5616 5613 5610 5607 5605 5602 5599 5596 5592 5588 5583 5578 5574 5569 5563 5558 5551 5545 5540 5534 5530 5526 5522 5518 5514 5510 5506 5502 5499 5496 5492 5490 5488 5486 5485 5483 5481 5479